Regional Weather Roundup
Issued by NWS

Home | Current Version | Previous Version | Text Only | Print | Product List | Glossary Off
Versions: 1 2 3 4 5 6 7 8 9 10 11 12 13 14 15 16 17 18 19 20 21 22 23 24 25 26 27 28 29 30 31 32 33 34 35 36 37 38 39 40 41 42 43 44 45 46 47 48 49 50

217
ASUS44 KMEG 232200
RWRTN
TENNESSEE HOURLY STATE WEATHER ROUNDUP
NATIONAL WEATHER SERVICE MEMPHIS TN
500 PM CDT SAT JUL 23 2016

TNZ002-004-019-021-049-052-054-088>092-232300-
WEST TENNESSEE

CITY           SKY/WX    TMP DP  RH WIND       PRES   REMARKS
MEMPHIS INTL   CLOUDY    86  72  62 VRB3      29.93F HX  92
NWS MEMPHIS      N/A     87 N/A N/A MISG        N/A
JACKSON        PTSUNNY   88  76  67 NE10      29.93F HX  99
DYERSBURG      CLOUDY    82  73  74 MISG      29.92S THUNDER
UNION CITY     SUNNY     91  75  59 VRB3      29.91S HX 102
PARIS          SUNNY     90  73  58 CALM      29.94F HX  98
LEXINGTON      MOSUNNY   81  77  89 CALM      29.93F
$$

TNZ008-025-027-028-033-062-065-066-232300-
NORTH MIDDLE TENNESSEE

CITY           SKY/WX    TMP DP  RH WIND       PRES   REMARKS
NASHVILLE      CLOUDY    91  71  51 E3        29.95S HX  97
CLARKSVILLE    SUNNY     88  75  65 SW3       29.93F HX  97
COOKEVILLE     SUNNY     91  77  62 NE10      29.96F HX 105
CROSSVILLE     CLOUDY    76  68  76 W5        30.04F
$$

TNZ061-075-076-078-094-096-097-232300-
SOUTH MIDDLE TENNESSEE

CITY           SKY/WX    TMP DP  RH WIND       PRES   REMARKS
TULLAHOMA        N/A     81  73  78 E10       29.99R
WINCHESTER     MOSUNNY   86  72  62 SE10      29.97F HX  92
MCMINNVILLE    SUNNY     88  77  70 NE20      29.97F HX 100
COLUMBIA       SUNNY     82  82 100 N3        29.96S HX  97
SHELBYVILLE    PTSUNNY   91  75  59 N6        29.95F HX 102
$$

TNZ017-018-042-046-047-232300-
NORTHEAST TENNESSEE

CITY           SKY/WX    TMP DP  RH WIND       PRES   REMARKS
TRI CITIES     PTSUNNY   92  66  42 N8        30.00R HX  94
$$

TNZ012-013-036-069-073-074-232300-
CENTRAL EAST TENNESSEE

CITY           SKY/WX    TMP DP  RH WIND       PRES   REMARKS
KNOXVILLE      CLOUDY    79  68  69 SW20      29.99S THUNDER
OAK RIDGE      CLOUDY    90  71  53 VRB3      29.99S HX  96
GATLINBURG     MOSUNNY   84  68  58 W9        29.98R
$$

TNZ083-085-099-232300-
SOUTHEAST TENNESSEE

CITY           SKY/WX    TMP DP  RH WIND       PRES   REMARKS
CHATTANOOGA    CLOUDY    85  69  58 S10       29.98F
$$

SKY/WX REPORTED AS FAIR MEANS FEW OR NO CLOUDS BELOW
12 THOUSAND FEET.





USA.gov is the U.S. government's official web portal to all federal, state and local government web resources and services.